Warning: Javascript must be enabled to use all the features on this page!


Page Loading - Please Wait...

* We've detected you're using a mobile device. Find our Next Generation Station Page here.
Click to hideNews Bulletins

Peak Streamflow for the Nation

USGS 01399670 South B Rockaway Creek at Whitehouse Station NJ

Hunterdon County, New Jersey
Hydrologic Unit Code 02030105
Latitude  40°37'10", Longitude  74°46'25" NAD83
Drainage area 11.3  square miles
Gage datum 121.5 feet above NGVD29
Output formats
Table
Graph
Tab-separated file
peakfq (watstore) format
Reselect output format
Water
Year
Date Gage
Height
(feet)
Stream-
flow
(cfs)
1978 1978-01-26   8682
1979 1979-01-24   1,4102
1980 1980-03-21   8992
1981 1981-05-11   1,0802
1982 1982-01-04   9352
1983 1983-04-16   1,0502
1984 1984-07-07   2,2802
1985 1985-09-27   6892
1986 1985-11-17   8002
1987 1987-04-04 7.35 886
1988 1988-07-26 6.46 692
1989 1989-09-20 7.55 1,200
1990 1990-05-17 7.30 1,110
1991 1990-10-09 7.09 1,030
1992 1992-06-05 6.52 846
1993 1992-11-23 6.79 933
1994 1993-11-28 6.72 910
1995 1995-03-09 4.61 352
1996 1996-01-19 7.96 1,370
1997 1996-10-19 9.50 2,050
1998 1998-01-23 5.97 707
1999 1999-09-16 10.68 2,620
2000 2000-08-14 5.85 672
2001 2000-12-17 5.60 603
2002 2002-05-13 6.62 907
2003 2003-07-23 7.14 1,080
2004 2004-07-23 7.55 1,230
2005 2004-11-28 7.59 1,240
2006 2006-06-28 8.24 1,500
2007 2007-04-16 8.20 1,480
2008 2008-03-08 8.07 1,430
2009 2009-08-02 8.76 1,720
2010 2010-03-13 8.52 1,610
2011 2011-08-28 9.56 2,060
2012 2011-11-23 6.62 914
2013 2013-07-01 8.09 1,420
2014 2014-04-30 8.73 1,690
2015 2015-01-18 5.24 536
2016 2016-02-25 6.19 802
2017 2017-04-06 6.08 769
2018 2018-04-16 6.92 973
2019 2018-11-25 7.67 1,220
?
  Peak Streamflow Qualification Codes.